Time,TemperatureF,DewpointF,PressureIn,WindDirection,WindDirectionDegrees,WindSpeedMPH,WindSpeedGustMPH,Humidity,HourlyPrecipIn,Conditions,Clouds,dailyrainin,SoftwareType,DateUTC
2013-05-14 00:03:00,72.3,50.4,30.10,SW,215,5.0,14.0,46,0.00,,,0.00,meteohub,2013-05-14 05:03:00,
2013-05-14 00:09:00,72.1,50.2,30.10,SSW,209,8.0,14.0,46,0.00,,,0.00,meteohub,2013-05-14 05:09:00,
2013-05-14 00:14:00,72.0,50.7,30.10,South,186,5.0,14.0,47,0.00,,,0.00,meteohub,2013-05-14 05:14:00,
2013-05-14 00:19:00,71.8,51.1,30.10,SW,216,10.0,12.0,48,0.00,,,0.00,meteohub,2013-05-14 05:19:00,
2013-05-14 00:24:00,71.6,52.0,30.10,SSW,197,5.0,12.0,50,0.00,,,0.00,meteohub,2013-05-14 05:24:00,
2013-05-14 00:30:00,71.4,51.8,30.10,SSW,202,5.0,12.0,50,0.00,,,0.00,meteohub,2013-05-14 05:30:00,
2013-05-14 00:35:00,71.2,51.6,30.10,SSW,206,5.0,12.0,50,0.00,,,0.00,meteohub,2013-05-14 05:35:00,
2013-05-14 00:40:00,71.2,52.2,30.10,SSW,196,4.0,9.0,51,0.00,,,0.00,meteohub,2013-05-14 05:40:00,
2013-05-14 00:46:00,71.2,52.7,30.10,SW,215,7.0,9.0,52,0.00,,,0.00,meteohub,2013-05-14 05:46:00,
2013-05-14 00:51:00,71.1,52.5,30.10,SSW,195,7.0,9.0,52,0.00,,,0.00,meteohub,2013-05-14 05:51:00,
2013-05-14 00:56:00,70.9,52.9,30.09,SSW,211,5.0,9.0,53,0.00,,,0.00,meteohub,2013-05-14 05:56:00,
2013-05-14 01:02:00,70.9,53.4,30.09,South,191,6.0,10.0,54,0.00,,,0.00,meteohub,2013-05-14 06:02:00,
2013-05-14 01:07:00,71.1,53.1,30.09,SSW,209,5.0,10.0,53,0.00,,,0.00,meteohub,2013-05-14 06:07:00,
2013-05-14 01:12:00,71.2,53.2,30.09,SSW,192,7.0,10.0,53,0.00,,,0.00,meteohub,2013-05-14 06:12:00,
2013-05-14 01:17:00,71.1,53.6,30.09,SSW,192,5.0,10.0,54,0.00,,,0.00,meteohub,2013-05-14 06:17:00,
2013-05-14 01:22:00,70.9,54.0,30.09,South,181,6.0,10.0,55,0.00,,,0.00,meteohub,2013-05-14 06:22:00,
2013-05-14 01:28:00,70.9,54.0,30.09,South,190,8.0,14.0,55,0.00,,,0.00,meteohub,2013-05-14 06:28:00,
2013-05-14 01:33:00,70.9,54.3,30.09,SSW,204,11.0,14.0,56,0.00,,,0.00,meteohub,2013-05-14 06:33:00,
2013-05-14 01:38:00,70.7,54.3,30.09,South,178,8.0,14.0,56,0.00,,,0.00,meteohub,2013-05-14 06:38:00,
2013-05-14 01:44:00,70.5,54.5,30.08,SSW,207,7.0,14.0,57,0.00,,,0.00,meteohub,2013-05-14 06:44:00,
2013-05-14 01:49:00,70.3,54.3,30.08,South,188,8.0,14.0,57,0.00,,,0.00,meteohub,2013-05-14 06:49:00,
2013-05-14 01:54:00,70.2,54.7,30.08,SW,223,6.0,14.0,58,0.00,,,0.00,meteohub,2013-05-14 06:54:00,
2013-05-14 01:59:00,70.0,55.0,30.08,SSW,196,5.0,15.0,59,0.00,,,0.00,meteohub,2013-05-14 06:59:00,
2013-05-14 02:04:00,69.8,54.9,30.08,SW,215,10.0,15.0,59,0.00,,,0.00,meteohub,2013-05-14 07:04:00,
2013-05-14 02:10:00,69.8,54.9,30.08,SSW,200,3.0,15.0,59,0.00,,,0.00,meteohub,2013-05-14 07:10:00,
2013-05-14 02:15:00,69.8,55.2,30.08,SSW,199,6.0,15.0,60,0.00,,,0.00,meteohub,2013-05-14 07:15:00,
2013-05-14 02:20:00,69.6,55.0,30.08,SSW,209,5.0,15.0,60,0.00,,,0.00,meteohub,2013-05-14 07:20:00,
2013-05-14 02:25:00,69.4,55.4,30.08,South,190,8.0,15.0,61,0.00,,,0.00,meteohub,2013-05-14 07:25:00,
2013-05-14 02:31:00,69.1,55.0,30.08,SSW,209,5.0,15.0,61,0.00,,,0.00,meteohub,2013-05-14 07:31:00,
2013-05-14 02:36:00,68.7,55.2,30.07,SSW,192,7.0,15.0,62,0.00,,,0.00,meteohub,2013-05-14 07:36:00,
2013-05-14 02:42:00,68.5,55.0,30.07,SSW,204,9.0,15.0,62,0.00,,,0.00,meteohub,2013-05-14 07:42:00,
2013-05-14 02:47:00,68.4,55.2,30.08,South,186,7.0,11.0,63,0.00,,,0.00,meteohub,2013-05-14 07:47:00,
2013-05-14 02:52:00,68.2,55.0,30.07,South,173,4.0,11.0,63,0.00,,,0.00,meteohub,2013-05-14 07:52:00,
2013-05-14 02:57:00,67.8,55.2,30.07,South,181,3.0,11.0,64,0.00,,,0.00,meteohub,2013-05-14 07:57:00,
2013-05-14 03:02:00,67.6,55.4,30.07,SSW,200,5.0,9.0,65,0.00,,,0.00,meteohub,2013-05-14 08:02:00,
2013-05-14 03:07:00,67.6,55.4,30.07,South,178,6.0,9.0,65,0.00,,,0.00,meteohub,2013-05-14 08:07:00,
2013-05-14 03:12:00,67.5,55.2,30.07,SSW,209,7.0,9.0,65,0.00,,,0.00,meteohub,2013-05-14 08:12:00,
2013-05-14 03:17:00,67.3,55.6,30.06,SSW,201,3.0,9.0,66,0.00,,,0.00,meteohub,2013-05-14 08:17:00,
2013-05-14 03:22:00,67.1,55.8,30.06,SSW,206,6.0,9.0,67,0.00,,,0.00,meteohub,2013-05-14 08:22:00,
2013-05-14 03:27:00,66.9,55.6,30.06,SSW,194,6.0,9.0,67,0.00,,,0.00,meteohub,2013-05-14 08:27:00,
2013-05-14 03:32:00,66.7,55.4,30.06,SSW,205,3.0,8.0,67,0.00,,,0.00,meteohub,2013-05-14 08:32:00,
2013-05-14 03:37:00,66.6,55.6,30.06,SSW,203,2.0,8.0,68,0.00,,,0.00,meteohub,2013-05-14 08:37:00,
2013-05-14 03:42:00,66.4,55.6,30.06,SW,216,3.0,8.0,68,0.00,,,0.00,meteohub,2013-05-14 08:42:00,
2013-05-14 03:47:00,66.2,55.8,30.06,South,191,3.0,7.0,69,0.00,,,0.00,meteohub,2013-05-14 08:47:00,
2013-05-14 03:52:00,66.0,55.6,30.06,SSW,195,4.0,7.0,69,0.00,,,0.00,meteohub,2013-05-14 08:52:00,
2013-05-14 03:57:00,65.8,55.4,30.06,SSW,194,3.0,7.0,69,0.00,,,0.00,meteohub,2013-05-14 08:57:00,
2013-05-14 04:02:00,65.7,55.6,30.06,SSW,196,4.0,7.0,70,0.00,,,0.00,meteohub,2013-05-14 09:02:00,
2013-05-14 04:07:00,65.5,55.8,30.07,SSW,193,6.0,7.0,71,0.00,,,0.00,meteohub,2013-05-14 09:07:00,
2013-05-14 04:12:00,65.3,55.6,30.07,South,183,3.0,7.0,71,0.00,,,0.00,meteohub,2013-05-14 09:12:00,
2013-05-14 04:17:00,65.1,55.9,30.06,SW,217,4.0,8.0,72,0.00,,,0.00,meteohub,2013-05-14 09:17:00,
2013-05-14 04:22:00,64.9,55.8,30.07,SSW,209,4.0,8.0,72,0.00,,,0.00,meteohub,2013-05-14 09:22:00,
2013-05-14 04:27:00,64.8,55.9,30.07,SSW,211,7.0,8.0,73,0.00,,,0.00,meteohub,2013-05-14 09:27:00,
2013-05-14 04:32:00,64.6,55.8,30.07,South,187,4.0,7.0,73,0.00,,,0.00,meteohub,2013-05-14 09:32:00,
2013-05-14 04:38:00,64.6,55.8,30.06,SSW,202,4.0,7.0,73,0.00,,,0.00,meteohub,2013-05-14 09:38:00,
2013-05-14 04:43:00,64.2,55.8,30.06,South,191,4.0,7.0,74,0.00,,,0.00,meteohub,2013-05-14 09:43:00,
2013-05-14 04:48:00,64.0,55.6,30.06,SSW,200,3.0,7.0,74,0.00,,,0.00,meteohub,2013-05-14 09:48:00,
2013-05-14 04:54:00,63.9,55.8,30.07,South,191,2.0,7.0,75,0.00,,,0.00,meteohub,2013-05-14 09:54:00,
2013-05-14 04:59:00,63.5,55.4,30.07,SSW,212,3.0,7.0,75,0.00,,,0.00,meteohub,2013-05-14 09:59:00,
2013-05-14 05:04:00,63.3,55.6,30.06,South,182,3.0,6.0,76,0.00,,,0.00,meteohub,2013-05-14 10:04:00,
2013-05-14 05:10:00,63.1,55.8,30.07,SSW,195,4.0,6.0,77,0.00,,,0.00,meteohub,2013-05-14 10:10:00,
2013-05-14 05:15:00,63.1,55.8,30.07,SSW,192,5.0,6.0,77,0.00,,,0.00,meteohub,2013-05-14 10:15:00,
2013-05-14 05:20:00,63.1,55.8,30.07,SSW,192,3.0,6.0,77,0.00,,,0.00,meteohub,2013-05-14 10:20:00,
2013-05-14 05:26:00,63.1,56.1,30.07,SSW,207,4.0,6.0,78,0.00,,,0.00,meteohub,2013-05-14 10:26:00,
2013-05-14 05:31:00,63.1,56.1,30.07,South,181,6.0,7.0,78,0.00,,,0.00,meteohub,2013-05-14 10:31:00,
2013-05-14 05:36:00,63.0,56.3,30.07,South,175,4.0,7.0,79,0.00,,,0.00,meteohub,2013-05-14 10:36:00,
2013-05-14 05:42:00,63.0,56.3,30.07,South,179,2.0,7.0,79,0.00,,,0.00,meteohub,2013-05-14 10:42:00,
2013-05-14 05:47:00,62.8,56.1,30.07,SSW,205,4.0,7.0,79,0.00,,,0.00,meteohub,2013-05-14 10:47:00,
2013-05-14 05:52:00,62.6,56.3,30.07,SSW,195,3.0,7.0,80,0.00,,,0.00,meteohub,2013-05-14 10:52:00,
2013-05-14 05:57:00,62.4,56.8,30.07,SSW,193,7.0,7.0,82,0.00,,,0.00,meteohub,2013-05-14 10:57:00,
2013-05-14 06:02:00,62.4,57.2,30.07,SSW,200,4.0,7.0,83,0.00,,,0.00,meteohub,2013-05-14 11:02:00,
2013-05-14 06:07:00,62.2,57.7,30.07,South,173,5.0,7.0,85,0.00,,,0.00,meteohub,2013-05-14 11:07:00,
2013-05-14 06:12:00,62.1,57.6,30.07,South,187,6.0,7.0,85,0.00,,,0.00,meteohub,2013-05-14 11:12:00,
2013-05-14 06:17:00,61.9,57.0,30.07,South,184,4.0,7.0,84,0.00,,,0.00,meteohub,2013-05-14 11:17:00,
2013-05-14 06:22:00,61.9,57.0,30.07,SSW,198,6.0,8.0,84,0.00,,,0.00,meteohub,2013-05-14 11:22:00,
2013-05-14 06:27:00,61.9,57.0,30.07,SSE,165,6.0,8.0,84,0.00,,,0.00,meteohub,2013-05-14 11:27:00,
2013-05-14 06:32:00,61.9,57.0,30.07,SSW,198,5.0,8.0,84,0.00,,,0.00,meteohub,2013-05-14 11:32:00,
2013-05-14 06:37:00,61.9,57.0,30.08,South,170,3.0,8.0,84,0.00,,,0.00,meteohub,2013-05-14 11:37:00,
2013-05-14 06:42:00,61.9,57.4,30.08,SSW,200,4.0,8.0,85,0.00,,,0.00,meteohub,2013-05-14 11:42:00,
2013-05-14 06:48:00,61.9,57.4,30.08,South,190,5.0,8.0,85,0.00,,,0.00,meteohub,2013-05-14 11:48:00,
2013-05-14 06:53:00,61.9,57.4,30.08,SSW,200,4.0,9.0,85,0.00,,,0.00,meteohub,2013-05-14 11:53:00,
2013-05-14 06:58:00,61.7,57.4,30.08,SSW,198,4.0,9.0,86,0.00,,,0.00,meteohub,2013-05-14 11:58:00,
2013-05-14 07:04:00,61.9,57.6,30.08,South,185,3.0,9.0,86,0.00,,,0.00,meteohub,2013-05-14 12:04:00,
2013-05-14 07:09:00,62.1,57.7,30.09,SSW,210,2.0,9.0,86,0.00,,,0.00,meteohub,2013-05-14 12:09:00,
2013-05-14 07:15:00,62.1,57.7,30.09,SSW,198,3.0,9.0,86,0.00,,,0.00,meteohub,2013-05-14 12:15:00,
2013-05-14 07:20:00,62.2,57.9,30.09,SSW,202,1.0,9.0,86,0.00,,,0.00,meteohub,2013-05-14 12:20:00,
2013-05-14 07:25:00,62.2,57.9,30.09,SSW,209,5.0,9.0,86,0.00,,,0.00,meteohub,2013-05-14 12:25:00,
2013-05-14 07:31:00,62.6,58.3,30.09,SSW,193,4.0,9.0,86,0.00,,,0.00,meteohub,2013-05-14 12:31:00,
2013-05-14 07:36:00,63.0,58.6,30.09,SSW,212,2.0,9.0,86,0.00,,,0.00,meteohub,2013-05-14 12:36:00,
2013-05-14 07:42:00,63.5,59.2,30.09,South,187,5.0,9.0,86,0.00,,,0.00,meteohub,2013-05-14 12:42:00,
2013-05-14 07:47:00,63.9,59.2,30.09,SSW,196,3.0,9.0,85,0.00,,,0.00,meteohub,2013-05-14 12:47:00,
2013-05-14 07:52:00,64.2,59.4,30.09,SSW,193,5.0,8.0,84,0.00,,,0.00,meteohub,2013-05-14 12:52:00,
2013-05-14 07:58:00,64.6,59.7,30.10,South,190,0.0,8.0,84,0.00,,,0.00,meteohub,2013-05-14 12:58:00,
2013-05-14 08:03:00,64.8,59.5,30.10,SSW,212,4.0,8.0,83,0.00,,,0.00,meteohub,2013-05-14 13:03:00,
2013-05-14 08:09:00,64.9,59.7,30.10,SSW,198,4.0,8.0,83,0.00,,,0.00,meteohub,2013-05-14 13:09:00,
2013-05-14 08:14:00,65.5,59.9,30.10,SW,220,7.0,8.0,82,0.00,,,0.00,meteohub,2013-05-14 13:14:00,
2013-05-14 08:19:00,65.8,60.3,30.10,SW,219,3.0,8.0,82,0.00,,,0.00,meteohub,2013-05-14 13:19:00,
2013-05-14 08:25:00,66.0,60.1,30.10,SSW,201,3.0,10.0,81,0.00,,,0.00,meteohub,2013-05-14 13:25:00,
2013-05-14 08:30:00,66.6,60.3,30.10,SSW,204,5.0,10.0,80,0.00,,,0.00,meteohub,2013-05-14 13:30:00,
2013-05-14 08:36:00,66.9,60.6,30.10,SSW,209,1.0,10.0,80,0.00,,,0.00,meteohub,2013-05-14 13:36:00,
2013-05-14 08:41:00,67.5,60.8,30.10,SW,221,0.0,10.0,79,0.00,,,0.00,meteohub,2013-05-14 13:41:00,
2013-05-14 08:46:00,67.8,60.6,30.10,SSW,194,5.0,10.0,78,0.00,,,0.00,meteohub,2013-05-14 13:46:00,
2013-05-14 08:52:00,68.2,60.6,30.11,SSW,209,6.0,9.0,77,0.00,,,0.00,meteohub,2013-05-14 13:52:00,
2013-05-14 08:57:00,68.4,60.8,30.11,SSW,209,0.0,9.0,77,0.00,,,0.00,meteohub,2013-05-14 13:57:00,
2013-05-14 09:02:00,68.7,60.8,30.11,SW,223,6.0,9.0,76,0.00,,,0.00,meteohub,2013-05-14 14:02:00,
2013-05-14 09:07:00,69.1,60.8,30.11,SSW,206,5.0,9.0,75,0.00,,,0.00,meteohub,2013-05-14 14:07:00,
2013-05-14 09:12:00,69.4,60.8,30.11,South,186,6.0,9.0,74,0.00,,,0.00,meteohub,2013-05-14 14:12:00,
2013-05-14 09:17:00,69.6,60.6,30.11,SSW,198,2.0,10.0,73,0.00,,,0.00,meteohub,2013-05-14 14:17:00,
2013-05-14 09:23:00,70.2,61.2,30.11,SSW,201,5.0,10.0,73,0.00,,,0.00,meteohub,2013-05-14 14:23:00,
2013-05-14 09:28:00,70.5,61.5,30.11,SSW,209,4.0,10.0,73,0.00,,,0.00,meteohub,2013-05-14 14:28:00,
2013-05-14 09:33:00,70.9,61.3,30.11,SSW,207,0.0,10.0,72,0.00,,,0.00,meteohub,2013-05-14 14:33:00,
2013-05-14 09:39:00,71.2,61.7,30.11,South,185,6.0,10.0,72,0.00,,,0.00,meteohub,2013-05-14 14:39:00,
2013-05-14 09:44:00,71.8,61.5,30.11,SW,216,7.0,10.0,70,0.00,,,0.00,meteohub,2013-05-14 14:44:00,
2013-05-14 09:50:00,72.0,61.7,30.11,SSW,207,6.0,9.0,70,0.00,,,0.00,meteohub,2013-05-14 14:50:00,
2013-05-14 09:55:00,72.5,61.7,30.11,SSW,194,4.0,9.0,69,0.00,,,0.00,meteohub,2013-05-14 14:55:00,
2013-05-14 10:00:00,73.0,61.9,30.11,South,180,9.0,9.0,68,0.00,,,0.00,meteohub,2013-05-14 15:00:00,
2013-05-14 10:06:00,73.6,62.4,30.11,South,173,5.0,9.0,68,0.00,,,0.00,meteohub,2013-05-14 15:06:00,
2013-05-14 10:11:00,73.9,62.2,30.11,South,178,8.0,12.0,67,0.00,,,0.00,meteohub,2013-05-14 15:11:00,
2013-05-14 10:16:00,74.1,62.4,30.11,SSW,198,0.0,12.0,67,0.00,,,0.00,meteohub,2013-05-14 15:16:00,
2013-05-14 10:22:00,74.7,62.1,30.11,SSW,200,2.0,12.0,65,0.00,,,0.00,meteohub,2013-05-14 15:22:00,
2013-05-14 10:27:00,74.8,62.2,30.11,SW,227,4.0,12.0,65,0.00,,,0.00,meteohub,2013-05-14 15:27:00,
2013-05-14 10:32:00,75.4,62.4,30.11,WSW,249,1.0,12.0,64,0.00,,,0.00,meteohub,2013-05-14 15:32:00,
2013-05-14 10:37:00,75.9,62.4,30.11,SSW,207,6.0,12.0,63,0.00,,,0.00,meteohub,2013-05-14 15:37:00,
2013-05-14 10:42:00,76.6,63.5,30.11,SSW,197,0.0,12.0,64,0.00,,,0.00,meteohub,2013-05-14 15:42:00,
2013-05-14 10:47:00,77.2,62.6,30.11,South,184,3.0,12.0,61,0.00,,,0.00,meteohub,2013-05-14 15:47:00,
2013-05-14 10:52:00,77.4,62.8,30.11,SSW,208,10.0,12.0,61,0.00,,,0.00,meteohub,2013-05-14 15:52:00,
2013-05-14 10:57:00,78.1,63.1,30.11,SW,226,10.0,12.0,60,0.00,,,0.00,meteohub,2013-05-14 15:57:00,
2013-05-14 11:02:00,78.4,63.0,30.11,SW,216,7.0,13.0,59,0.00,,,0.00,meteohub,2013-05-14 16:02:00,
2013-05-14 11:07:00,79.0,63.0,30.11,SW,221,7.0,13.0,58,0.00,,,0.00,meteohub,2013-05-14 16:07:00,
2013-05-14 11:12:00,79.2,63.1,30.11,SSW,207,3.0,13.0,58,0.00,,,0.00,meteohub,2013-05-14 16:12:00,
2013-05-14 11:17:00,79.3,62.8,30.11,SW,214,5.0,13.0,57,0.00,,,0.00,meteohub,2013-05-14 16:17:00,
2013-05-14 11:23:00,79.9,63.3,30.11,South,190,1.0,13.0,57,0.00,,,0.00,meteohub,2013-05-14 16:23:00,
2013-05-14 11:28:00,80.4,62.8,30.11,South,187,11.0,13.0,55,0.00,,,0.00,meteohub,2013-05-14 16:28:00,
2013-05-14 11:33:00,81.0,64.2,30.11,SSW,194,3.0,13.0,57,0.00,,,0.00,meteohub,2013-05-14 16:33:00,
2013-05-14 11:39:00,81.1,63.5,30.11,SSW,197,1.0,13.0,55,0.00,,,0.00,meteohub,2013-05-14 16:39:00,
2013-05-14 11:44:00,81.9,64.6,30.10,SSW,211,5.0,13.0,56,0.00,,,0.00,meteohub,2013-05-14 16:44:00,
2013-05-14 11:49:00,81.9,64.0,30.10,South,188,8.0,12.0,55,0.00,,,0.00,meteohub,2013-05-14 16:49:00,
2013-05-14 11:55:00,82.2,64.9,30.10,SSW,212,7.0,12.0,56,0.00,,,0.00,meteohub,2013-05-14 16:55:00,
2013-05-14 12:00:00,82.8,63.3,30.09,SSE,167,8.0,12.0,52,0.00,,,0.00,meteohub,2013-05-14 17:00:00,
2013-05-14 12:05:00,82.8,63.9,30.09,SSW,200,7.0,12.0,53,0.00,,,0.00,meteohub,2013-05-14 17:05:00,
2013-05-14 12:11:00,82.8,63.9,30.09,SW,217,4.0,12.0,53,0.00,,,0.00,meteohub,2013-05-14 17:11:00,
2013-05-14 12:16:00,83.1,64.2,30.09,WSW,240,2.0,12.0,53,0.00,,,0.00,meteohub,2013-05-14 17:16:00,
2013-05-14 12:22:00,83.3,64.9,30.09,SSW,206,4.0,15.0,54,0.00,,,0.00,meteohub,2013-05-14 17:22:00,
2013-05-14 12:27:00,83.8,66.0,30.09,West,269,2.0,15.0,55,0.00,,,0.00,meteohub,2013-05-14 17:27:00,
2013-05-14 12:32:00,84.0,65.1,30.08,SSW,192,5.0,15.0,53,0.00,,,0.00,meteohub,2013-05-14 17:32:00,
2013-05-14 12:37:00,84.0,65.1,30.08,SSW,201,5.0,15.0,53,0.00,,,0.00,meteohub,2013-05-14 17:37:00,
2013-05-14 12:42:00,84.4,65.3,30.08,SW,225,6.0,15.0,53,0.00,,,0.00,meteohub,2013-05-14 17:42:00,
2013-05-14 12:47:00,84.0,63.3,30.07,SSW,210,2.0,15.0,50,0.00,,,0.00,meteohub,2013-05-14 17:47:00,
2013-05-14 12:52:00,84.6,64.9,30.07,SSW,202,5.0,15.0,52,0.00,,,0.00,meteohub,2013-05-14 17:52:00,
2013-05-14 12:58:00,84.6,63.3,30.07,South,184,10.0,15.0,49,0.00,,,0.00,meteohub,2013-05-14 17:58:00,
2013-05-14 13:03:00,84.6,64.4,30.06,SSW,207,7.0,15.0,51,0.00,,,0.00,meteohub,2013-05-14 18:03:00,
2013-05-14 13:09:00,85.5,64.8,30.06,SSW,193,9.0,15.0,50,0.00,,,0.00,meteohub,2013-05-14 18:09:00,
2013-05-14 13:14:00,85.3,63.3,30.06,South,185,11.0,15.0,48,0.00,,,0.00,meteohub,2013-05-14 18:14:00,
2013-05-14 13:19:00,85.5,61.7,30.06,SSW,202,10.0,17.0,45,0.00,,,0.00,meteohub,2013-05-14 18:19:00,
2013-05-14 13:25:00,85.3,63.3,30.05,South,184,5.0,17.0,48,0.00,,,0.00,meteohub,2013-05-14 18:25:00,
2013-05-14 13:30:00,85.1,62.6,30.05,SSW,201,3.0,17.0,47,0.00,,,0.00,meteohub,2013-05-14 18:30:00,
2013-05-14 13:36:00,85.8,66.7,30.05,SSE,159,10.0,17.0,53,0.00,,,0.00,meteohub,2013-05-14 18:36:00,
2013-05-14 13:41:00,86.2,63.5,30.04,South,173,8.0,17.0,47,0.00,,,0.00,meteohub,2013-05-14 18:41:00,
2013-05-14 13:46:00,85.8,62.6,30.04,South,189,8.0,17.0,46,0.00,,,0.00,meteohub,2013-05-14 18:46:00,
2013-05-14 13:52:00,86.4,64.4,30.04,South,178,8.0,17.0,48,0.00,,,0.00,meteohub,2013-05-14 18:52:00,
2013-05-14 13:57:00,85.8,63.3,30.04,South,177,8.0,16.0,47,0.00,,,0.00,meteohub,2013-05-14 18:57:00,
2013-05-14 14:02:00,85.8,63.3,30.03,SW,223,10.0,16.0,47,0.00,,,0.00,meteohub,2013-05-14 19:02:00,
2013-05-14 14:07:00,85.5,65.3,30.03,SSW,192,10.0,16.0,51,0.00,,,0.00,meteohub,2013-05-14 19:07:00,
2013-05-14 14:12:00,85.8,62.6,30.03,South,186,10.0,16.0,46,0.00,,,0.00,meteohub,2013-05-14 19:12:00,
2013-05-14 14:17:00,85.8,62.6,30.03,SSE,163,12.0,16.0,46,0.00,,,0.00,meteohub,2013-05-14 19:17:00,
2013-05-14 14:23:00,85.8,62.1,30.03,SSE,167,9.0,16.0,45,0.00,,,0.00,meteohub,2013-05-14 19:23:00,
2013-05-14 14:28:00,86.2,62.4,30.03,SSW,205,14.0,20.0,45,0.00,,,0.00,meteohub,2013-05-14 19:28:00,
2013-05-14 14:33:00,86.4,60.6,30.02,South,187,15.0,20.0,42,0.00,,,0.00,meteohub,2013-05-14 19:33:00,
2013-05-14 14:39:00,86.2,61.0,30.02,SSW,209,5.0,20.0,43,0.00,,,0.00,meteohub,2013-05-14 19:39:00,
2013-05-14 14:44:00,86.7,61.5,30.02,SSW,196,10.0,20.0,43,0.00,,,0.00,meteohub,2013-05-14 19:44:00,
2013-05-14 14:49:00,86.7,58.1,30.02,SSE,160,11.0,19.0,38,0.00,,,0.00,meteohub,2013-05-14 19:49:00,
2013-05-14 14:55:00,86.7,60.8,30.02,South,186,1.0,19.0,42,0.00,,,0.00,meteohub,2013-05-14 19:55:00,
2013-05-14 15:00:00,86.9,60.4,30.02,SSW,211,5.0,19.0,41,0.00,,,0.00,meteohub,2013-05-14 20:00:00,
2013-05-14 15:05:00,86.7,62.8,30.02,South,183,13.0,19.0,45,0.00,,,0.00,meteohub,2013-05-14 20:05:00,
2013-05-14 15:11:00,87.1,63.1,30.01,South,188,18.0,19.0,45,0.00,,,0.00,meteohub,2013-05-14 20:11:00,
2013-05-14 15:16:00,87.1,59.9,30.01,SSE,155,13.0,19.0,40,0.00,,,0.00,meteohub,2013-05-14 20:16:00,
2013-05-14 15:21:00,86.7,61.5,30.01,SW,231,12.0,19.0,43,0.00,,,0.00,meteohub,2013-05-14 20:21:00,
2013-05-14 15:26:00,86.4,62.4,30.01,SSE,153,9.0,19.0,45,0.00,,,0.00,meteohub,2013-05-14 20:26:00,
2013-05-14 15:32:00,87.1,61.9,30.01,SW,215,5.0,20.0,43,0.00,,,0.00,meteohub,2013-05-14 20:32:00,
2013-05-14 15:37:00,87.1,59.9,30.01,SSW,200,12.0,20.0,40,0.00,,,0.00,meteohub,2013-05-14 20:37:00,
2013-05-14 15:42:00,86.5,60.1,30.00,South,185,10.0,20.0,41,0.00,,,0.00,meteohub,2013-05-14 20:42:00,
2013-05-14 15:47:00,86.5,59.4,30.00,SSW,208,17.0,21.0,40,0.00,,,0.00,meteohub,2013-05-14 20:47:00,
2013-05-14 15:52:00,86.2,59.0,30.00,SSW,207,9.0,21.0,40,0.00,,,0.00,meteohub,2013-05-14 20:52:00,
2013-05-14 15:57:00,86.9,57.6,30.00,SSE,153,13.0,21.0,37,0.00,,,0.00,meteohub,2013-05-14 20:57:00,
2013-05-14 16:02:00,86.7,55.8,30.00,South,190,15.0,23.0,35,0.00,,,0.00,meteohub,2013-05-14 21:02:00,
2013-05-14 16:08:00,86.2,56.8,29.99,South,174,13.0,23.0,37,0.00,,,0.00,meteohub,2013-05-14 21:08:00,
2013-05-14 16:13:00,86.4,59.2,29.99,SSE,163,11.0,23.0,40,0.00,,,0.00,meteohub,2013-05-14 21:13:00,
2013-05-14 16:18:00,86.5,60.8,29.99,SSE,165,8.0,22.0,42,0.00,,,0.00,meteohub,2013-05-14 21:18:00,
2013-05-14 16:24:00,86.9,58.3,29.99,South,181,11.0,22.0,38,0.00,,,0.00,meteohub,2013-05-14 21:24:00,
2013-05-14 16:29:00,86.2,57.6,29.98,South,184,22.0,22.0,38,0.00,,,0.00,meteohub,2013-05-14 21:29:00,
2013-05-14 16:34:00,86.0,58.1,29.99,SSW,203,8.0,18.0,39,0.00,,,0.00,meteohub,2013-05-14 21:34:00,
2013-05-14 16:39:00,86.0,58.8,29.98,South,178,17.0,18.0,40,0.00,,,0.00,meteohub,2013-05-14 21:39:00,
2013-05-14 16:45:00,85.8,56.5,29.98,SSW,196,4.0,18.0,37,0.00,,,0.00,meteohub,2013-05-14 21:45:00,
2013-05-14 16:50:00,86.2,58.3,29.98,SSW,206,4.0,21.0,39,0.00,,,0.00,meteohub,2013-05-14 21:50:00,
2013-05-14 16:55:00,85.8,57.9,29.98,SSW,193,15.0,21.0,39,0.00,,,0.00,meteohub,2013-05-14 21:55:00,
2013-05-14 17:00:00,85.6,55.6,29.98,SW,215,8.0,21.0,36,0.00,,,0.00,meteohub,2013-05-14 22:00:00,
2013-05-14 17:06:00,85.5,57.0,29.97,South,171,5.0,21.0,38,0.00,,,0.00,meteohub,2013-05-14 22:06:00,
2013-05-14 17:11:00,85.6,57.9,29.97,South,184,6.0,21.0,39,0.00,,,0.00,meteohub,2013-05-14 22:11:00,
2013-05-14 17:16:00,85.5,56.3,29.97,SW,219,10.0,18.0,37,0.00,,,0.00,meteohub,2013-05-14 22:16:00,
2013-05-14 17:22:00,85.5,57.7,29.97,South,188,15.0,18.0,39,0.00,,,0.00,meteohub,2013-05-14 22:22:00,
2013-05-14 17:27:00,85.3,56.8,29.96,SSW,201,13.0,18.0,38,0.00,,,0.00,meteohub,2013-05-14 22:27:00,
2013-05-14 17:32:00,84.9,57.9,29.96,SSW,196,7.0,21.0,40,0.00,,,0.00,meteohub,2013-05-14 22:32:00,
2013-05-14 17:37:00,85.1,58.1,29.96,South,189,8.0,21.0,40,0.00,,,0.00,meteohub,2013-05-14 22:37:00,
2013-05-14 17:42:00,85.3,58.3,29.96,SW,229,18.0,21.0,40,0.00,,,0.00,meteohub,2013-05-14 22:42:00,
2013-05-14 17:47:00,84.6,57.6,29.96,South,171,9.0,22.0,40,0.00,,,0.00,meteohub,2013-05-14 22:47:00,
2013-05-14 17:52:00,84.6,57.6,29.96,South,190,10.0,22.0,40,0.00,,,0.00,meteohub,2013-05-14 22:52:00,
2013-05-14 17:57:00,84.6,59.0,29.96,SSW,211,11.0,22.0,42,0.00,,,0.00,meteohub,2013-05-14 22:57:00,
2013-05-14 18:02:00,84.6,56.8,29.95,South,174,9.0,22.0,39,0.00,,,0.00,meteohub,2013-05-14 23:02:00,
2013-05-14 18:07:00,84.0,56.5,29.95,SSW,197,10.0,22.0,39,0.00,,,0.00,meteohub,2013-05-14 23:07:00,
2013-05-14 18:12:00,84.0,57.0,29.95,SSW,202,7.0,22.0,40,0.00,,,0.00,meteohub,2013-05-14 23:12:00,
2013-05-14 18:17:00,84.4,58.1,29.95,South,184,10.0,22.0,41,0.00,,,0.00,meteohub,2013-05-14 23:17:00,
2013-05-14 18:22:00,84.6,59.5,29.95,SSW,192,7.0,20.0,43,0.00,,,0.00,meteohub,2013-05-14 23:22:00,
2013-05-14 18:27:00,84.0,57.7,29.95,SW,217,13.0,20.0,41,0.00,,,0.00,meteohub,2013-05-14 23:27:00,
2013-05-14 18:32:00,83.7,58.1,29.95,SSW,195,11.0,20.0,42,0.00,,,0.00,meteohub,2013-05-14 23:32:00,
2013-05-14 18:37:00,83.5,58.6,29.94,SSW,196,9.0,20.0,43,0.00,,,0.00,meteohub,2013-05-14 23:37:00,
2013-05-14 18:42:00,83.5,59.4,29.94,South,188,8.0,20.0,44,0.00,,,0.00,meteohub,2013-05-14 23:42:00,
2013-05-14 18:48:00,83.3,58.5,29.94,SW,216,7.0,20.0,43,0.00,,,0.00,meteohub,2013-05-14 23:48:00,
2013-05-14 18:53:00,83.1,58.3,29.94,SW,220,8.0,20.0,43,0.00,,,0.00,meteohub,2013-05-14 23:53:00,
2013-05-14 18:58:00,82.9,58.1,29.94,South,184,11.0,20.0,43,0.00,,,0.00,meteohub,2013-05-14 23:58:00,
2013-05-14 19:04:00,82.6,57.7,29.94,SSW,205,15.0,20.0,43,0.00,,,0.00,meteohub,2013-05-15 00:04:00,
2013-05-14 19:09:00,82.4,57.7,29.94,SSW,198,14.0,20.0,43,0.00,,,0.00,meteohub,2013-05-15 00:09:00,
2013-05-14 19:14:00,82.2,58.1,29.94,SSW,200,10.0,20.0,44,0.00,,,0.00,meteohub,2013-05-15 00:14:00,
2013-05-14 19:20:00,82.2,58.8,29.94,SSE,153,9.0,20.0,45,0.00,,,0.00,meteohub,2013-05-15 00:20:00,
2013-05-14 19:25:00,82.0,58.6,29.94,South,190,15.0,20.0,45,0.00,,,0.00,meteohub,2013-05-15 00:25:00,
2013-05-14 19:30:00,81.9,58.5,29.94,SSE,162,11.0,18.0,45,0.00,,,0.00,meteohub,2013-05-15 00:30:00,
2013-05-14 19:36:00,81.7,58.3,29.94,SSW,192,9.0,18.0,45,0.00,,,0.00,meteohub,2013-05-15 00:36:00,
2013-05-14 19:41:00,81.5,58.1,29.94,SSE,160,8.0,18.0,45,0.00,,,0.00,meteohub,2013-05-15 00:41:00,
2013-05-14 19:46:00,81.1,57.7,29.94,South,191,8.0,18.0,45,0.00,,,0.00,meteohub,2013-05-15 00:46:00,
2013-05-14 19:51:00,81.0,57.6,29.94,South,184,6.0,18.0,45,0.00,,,0.00,meteohub,2013-05-15 00:51:00,
2013-05-14 19:57:00,80.8,58.1,29.94,South,171,3.0,18.0,46,0.00,,,0.00,meteohub,2013-05-15 00:57:00,
2013-05-14 20:02:00,80.4,58.3,29.94,South,188,8.0,18.0,47,0.00,,,0.00,meteohub,2013-05-15 01:02:00,
2013-05-14 20:07:00,80.1,58.1,29.94,South,183,3.0,18.0,47,0.00,,,0.00,meteohub,2013-05-15 01:07:00,
2013-05-14 20:12:00,79.5,57.6,29.94,SSE,160,6.0,13.0,47,0.00,,,0.00,meteohub,2013-05-15 01:12:00,
2013-05-14 20:17:00,79.3,57.9,29.94,South,169,3.0,13.0,48,0.00,,,0.00,meteohub,2013-05-15 01:17:00,
2013-05-14 20:23:00,79.0,58.1,29.94,South,176,4.0,11.0,49,0.00,,,0.00,meteohub,2013-05-15 01:23:00,
2013-05-14 20:28:00,78.8,58.1,29.95,SSE,160,10.0,11.0,49,0.00,,,0.00,meteohub,2013-05-15 01:28:00,
2013-05-14 20:33:00,78.4,58.3,29.95,South,175,5.0,11.0,50,0.00,,,0.00,meteohub,2013-05-15 01:33:00,
2013-05-14 20:38:00,78.3,58.1,29.95,South,174,5.0,11.0,50,0.00,,,0.00,meteohub,2013-05-15 01:38:00,
2013-05-14 20:44:00,78.3,58.1,29.94,SSE,156,6.0,11.0,50,0.00,,,0.00,meteohub,2013-05-15 01:44:00,
2013-05-14 20:49:00,77.9,58.3,29.94,South,169,5.0,11.0,51,0.00,,,0.00,meteohub,2013-05-15 01:49:00,
2013-05-14 20:54:00,77.7,58.1,29.95,SSE,153,6.0,10.0,51,0.00,,,0.00,meteohub,2013-05-15 01:54:00,
2013-05-14 21:00:00,77.4,58.3,29.95,SE,140,4.0,10.0,52,0.00,,,0.00,meteohub,2013-05-15 02:00:00,
2013-05-14 21:05:00,77.2,58.3,29.95,SSW,198,7.0,10.0,52,0.00,,,0.00,meteohub,2013-05-15 02:05:00,
2013-05-14 21:10:00,77.2,58.3,29.96,SSE,153,6.0,11.0,52,0.00,,,0.00,meteohub,2013-05-15 02:10:00,
2013-05-14 21:16:00,76.8,59.0,29.96,SSW,194,5.0,11.0,54,0.00,,,0.00,meteohub,2013-05-15 02:16:00,
2013-05-14 21:21:00,76.5,58.6,29.96,SSW,200,5.0,10.0,54,0.00,,,0.00,meteohub,2013-05-15 02:21:00,
2013-05-14 21:26:00,76.5,59.2,29.96,South,187,6.0,10.0,55,0.00,,,0.00,meteohub,2013-05-15 02:26:00,
2013-05-14 21:31:00,76.5,59.2,29.96,South,182,3.0,10.0,55,0.00,,,0.00,meteohub,2013-05-15 02:31:00,
2013-05-14 21:37:00,76.3,59.4,29.96,South,173,9.0,13.0,56,0.00,,,0.00,meteohub,2013-05-15 02:37:00,
2013-05-14 21:42:00,76.1,59.7,29.96,South,182,6.0,13.0,57,0.00,,,0.00,meteohub,2013-05-15 02:42:00,
2013-05-14 21:47:00,75.9,59.5,29.96,South,182,4.0,13.0,57,0.00,,,0.00,meteohub,2013-05-15 02:47:00,
2013-05-14 21:52:00,75.6,59.2,29.96,South,169,5.0,10.0,57,0.00,,,0.00,meteohub,2013-05-15 02:52:00,
2013-05-14 21:57:00,75.4,59.5,29.96,SSW,196,1.0,10.0,58,0.00,,,0.00,meteohub,2013-05-15 02:57:00,
2013-05-14 22:02:00,75.2,59.4,29.96,SE,142,4.0,10.0,58,0.00,,,0.00,meteohub,2013-05-15 03:02:00,
2013-05-14 22:07:00,75.0,59.7,29.97,South,173,3.0,10.0,59,0.00,,,0.00,meteohub,2013-05-15 03:07:00,
2013-05-14 22:12:00,74.8,59.5,29.97,South,186,4.0,10.0,59,0.00,,,0.00,meteohub,2013-05-15 03:12:00,
2013-05-14 22:17:00,74.7,59.9,29.97,South,182,3.0,10.0,60,0.00,,,0.00,meteohub,2013-05-15 03:17:00,
2013-05-14 22:22:00,74.5,59.7,29.97,SSE,161,6.0,12.0,60,0.00,,,0.00,meteohub,2013-05-15 03:22:00,
2013-05-14 22:27:00,74.1,59.7,29.97,SSE,163,2.0,12.0,61,0.00,,,0.00,meteohub,2013-05-15 03:27:00,
2013-05-14 22:33:00,73.9,60.1,29.97,SSE,161,4.0,12.0,62,0.00,,,0.00,meteohub,2013-05-15 03:33:00,
2013-05-14 22:38:00,73.8,60.4,29.97,SSE,161,4.0,10.0,63,0.00,,,0.00,meteohub,2013-05-15 03:38:00,
2013-05-14 22:43:00,73.8,60.4,29.97,SSE,162,7.0,10.0,63,0.00,,,0.00,meteohub,2013-05-15 03:43:00,
2013-05-14 22:48:00,73.8,60.4,29.97,South,175,5.0,10.0,63,0.00,,,0.00,meteohub,2013-05-15 03:48:00,
2013-05-14 22:54:00,73.6,60.6,29.98,SSE,160,5.0,11.0,64,0.00,,,0.00,meteohub,2013-05-15 03:54:00,
2013-05-14 22:59:00,73.0,61.9,29.98,SSE,163,5.0,11.0,68,0.00,,,0.00,meteohub,2013-05-15 03:59:00,
2013-05-14 23:01:00,72.7,61.5,29.98,South,178,9.0,11.0,68,0.00,,,0.00,meteohub,2013-05-15 04:01:00,
2013-05-14 23:02:00,72.7,61.5,29.98,SSW,202,7.0,11.0,68,0.00,,,0.00,meteohub,2013-05-15 04:02:00,
2013-05-14 23:03:00,72.3,61.5,29.98,SSE,158,5.0,11.0,69,0.00,,,0.00,meteohub,2013-05-15 04:03:00,
2013-05-14 23:08:00,72.0,61.7,29.98,South,187,9.0,12.0,70,0.00,,,0.00,meteohub,2013-05-15 04:08:00,
2013-05-14 23:14:00,71.8,61.9,29.98,South,184,7.0,12.0,71,0.00,,,0.00,meteohub,2013-05-15 04:14:00,
2013-05-14 23:19:00,71.8,61.5,29.98,SSW,211,3.0,12.0,70,0.00,,,0.00,meteohub,2013-05-15 04:19:00,
2013-05-14 23:24:00,72.0,61.7,29.98,SSE,164,8.0,11.0,70,0.00,,,0.00,meteohub,2013-05-15 04:24:00,
2013-05-14 23:30:00,72.0,61.7,29.99,South,173,5.0,11.0,70,0.00,,,0.00,meteohub,2013-05-15 04:30:00,
2013-05-14 23:35:00,72.0,61.7,29.99,SSW,192,7.0,11.0,70,0.00,,,0.00,meteohub,2013-05-15 04:35:00,
2013-05-14 23:40:00,72.0,61.7,29.99,South,177,9.0,13.0,70,0.00,,,0.00,meteohub,2013-05-15 04:40:00,
2013-05-14 23:46:00,72.0,62.1,29.99,South,186,5.0,13.0,71,0.00,,,0.00,meteohub,2013-05-15 04:46:00,
2013-05-14 23:51:00,72.0,62.1,29.99,South,190,8.0,13.0,71,0.00,,,0.00,meteohub,2013-05-15 04:51:00,
2013-05-14 23:56:00,72.0,62.4,29.99,South,178,8.0,13.0,72,0.00,,,0.00,meteohub,2013-05-15 04:56:00,